When you browse on this site, cookies collect data to enhance your experience and personalize the content and advertising you see.
Visit our Privacy Policy to learn more. By continuing to use the site, you agree to this use of cookies and data.
  • In Spain
  • List of Countries
  • For 7 days
  • Water Temperature
  • Satellite Maps
  • Weather Map
  • Weather Widgets
  • user-avatar
    Login

    Hourly Weather Siteki

    Today, 22 April, Monday

    Time Temperature Precipitation Wind Pressure Humidity
    00:00 +17°C° 0 mm 2 mps 721 mmHg 90%
    01:00 +17°C° 0 mm 2 mps 721 mmHg 90%
    02:00 +17°C° 0 mm 2 mps 721 mmHg 88%
    03:00 +18°C° 0.1 mm 2 mps 721 mmHg 88%
    04:00 +18°C° 0.1 mm 2 mps 721 mmHg 87%
    05:00 +18°C° 0.1 mm 2 mps 721 mmHg 87%
    06:00 +18°C° 0 mm 2 mps 721 mmHg 85%
    07:00 +18°C° 0 mm 2 mps 722 mmHg 84%
    08:00 +19°C° 0 mm 2 mps 722 mmHg 83%
    09:00 +20°C° 0 mm 2 mps 722 mmHg 78%
    10:00 +21°C° 0 mm 2 mps 722 mmHg 73%
    11:00 +23°C° 0 mm 2 mps 722 mmHg 68%
    12:00 +24°C° 0.1 mm 2 mps 721 mmHg 65%
    13:00 +25°C° 0.1 mm 2 mps 721 mmHg 62%
    14:00 +26°C° 0 mm 1 mps 721 mmHg 61%
    15:00 +25°C° 0.7 mm 1 mps 720 mmHg 68%
    16:00 +24°C° 0.7 mm 1 mps 720 mmHg 75%
    17:00 +23°C° 0.7 mm 1 mps 720 mmHg 82%
    18:00 +22°C° 0.3 mm 1 mps 720 mmHg 86%
    19:00 +21°C° 0.3 mm 1 mps 720 mmHg 91%
    20:00 +20°C° 0.3 mm 1 mps 721 mmHg 95%
    21:00 +19°C° 0 mm 1 mps 721 mmHg 96%
    22:00 +19°C° 0 mm 1 mps 721 mmHg 96%
    23:00 +19°C° 0 mm 1 mps 721 mmHg 97%

    Tomorrow, 23 April, Tuesday

    Time Temperature Precipitation Wind Pressure Humidity
    00:00 +19°C° 0 mm 1 mps 721 mmHg 97%
    01:00 +19°C° 0 mm 1 mps 721 mmHg 97%
    02:00 +19°C° 0 mm 1 mps 720 mmHg 97%
    03:00 +19°C° 0 mm 1 mps 720 mmHg 97%
    04:00 +19°C° 0 mm 1 mps 720 mmHg 97%
    05:00 +18°C° 0 mm 1 mps 720 mmHg 97%
    06:00 +19°C° 0 mm 1 mps 721 mmHg 94%
    07:00 +20°C° 0 mm 1 mps 721 mmHg 90%
    08:00 +21°C° 0 mm 1 mps 722 mmHg 86%
    09:00 +23°C° 0 mm 1 mps 722 mmHg 77%
    10:00 +25°C° 0 mm 1 mps 722 mmHg 68%
    11:00 +27°C° 0 mm 1 mps 722 mmHg 59%
    12:00 +27°C° 0.1 mm 2 mps 722 mmHg 57%
    13:00 +28°C° 0.1 mm 2 mps 721 mmHg 56%
    14:00 +28°C° 0.1 mm 2 mps 721 mmHg 54%
    15:00 +26°C° 0.6 mm 2 mps 721 mmHg 64%
    16:00 +25°C° 0.6 mm 2 mps 721 mmHg 73%
    17:00 +23°C° 0.6 mm 2 mps 721 mmHg 82%
    18:00 +21°C° 0.3 mm 2 mps 721 mmHg 87%
    19:00 +21°C° 0.3 mm 1 mps 721 mmHg 92%
    20:00 +20°C° 0.3 mm 1 mps 721 mmHg 96%
    21:00 +20°C° 0 mm 1 mps 722 mmHg 96%
    22:00 +20°C° 0 mm 1 mps 722 mmHg 97%
    23:00 +20°C° 0 mm 1 mps 722 mmHg 97%

    Day after tomorrow, 24 April, Wednesday

    Time Temperature Precipitation Wind Pressure Humidity
    00:00 +20°C° 0 mm 1 mps 721 mmHg 97%
    01:00 +19°C° 0 mm 1 mps 721 mmHg 97%
    02:00 +19°C° 0 mm 1 mps 721 mmHg 97%
    03:00 +19°C° 0 mm 1 mps 721 mmHg 97%
    04:00 +19°C° 0 mm 1 mps 721 mmHg 97%
    05:00 +19°C° 0 mm 1 mps 720 mmHg 97%
    06:00 +20°C° 0 mm 1 mps 721 mmHg 92%
    07:00 +19°C° 0 mm 0 mps 721 mmHg 88%
    08:00 +20°C° 0 mm 0 mps 722 mmHg 83%
    09:00 +23°C° 0 mm 0 mps 722 mmHg 73%
    10:00 +27°C° 0 mm 1 mps 722 mmHg 63%
    11:00 +29°C° 0 mm 1 mps 722 mmHg 53%
    12:00 +30°C° 0 mm 1 mps 721 mmHg 51%
    13:00 +30°C° 0 mm 1 mps 720 mmHg 49%
    14:00 +30°C° 0 mm 2 mps 719 mmHg 48%
    15:00 +29°C° 0 mm 2 mps 719 mmHg 55%
    16:00 +28°C° 0 mm 3 mps 719 mmHg 61%
    17:00 +26°C° 0 mm 3 mps 719 mmHg 68%
    18:00 +24°C° 0 mm 2 mps 719 mmHg 76%
    19:00 +23°C° 0 mm 1 mps 720 mmHg 85%
    20:00 +21°C° 0 mm 1 mps 720 mmHg 94%
    21:00 +21°C° 0 mm 1 mps 720 mmHg 94%
    22:00 +21°C° 0 mm 1 mps 720 mmHg 95%
    23:00 +18°C° 0 mm 0 mps 720 mmHg 96%

    25 April, Thursday

    Time Temperature Precipitation Wind Pressure Humidity
    00:00 +18°C° 0 mm 0 mps 720 mmHg 96%
    01:00 +20°C° 0 mm 1 mps 720 mmHg 97%
    02:00 +20°C° 0 mm 1 mps 719 mmHg 97%
    03:00 +20°C° 0 mm 1 mps 719 mmHg 96%
    04:00 +21°C° 0 mm 1 mps 719 mmHg 95%
    05:00 +19°C° 0 mm 0 mps 719 mmHg 95%
    06:00 +22°C° 0 mm 1 mps 719 mmHg 91%
    07:00 +23°C° 0 mm 1 mps 720 mmHg 87%
    08:00 +23°C° 0 mm 1 mps 720 mmHg 83%
    09:00 +26°C° 0 mm 1 mps 720 mmHg 73%
    10:00 +28°C° 0 mm 2 mps 720 mmHg 63%
    11:00 +30°C° 0 mm 3 mps 719 mmHg 53%
    12:00 +31°C° 0 mm 3 mps 718 mmHg 50%
    13:00 +31°C° 0 mm 3 mps 718 mmHg 46%
    14:00 +33°C° 0 mm 3 mps 717 mmHg 43%
    15:00 +31°C° 0 mm 3 mps 716 mmHg 47%
    16:00 +30°C° 0 mm 3 mps 716 mmHg 52%
    17:00 +29°C° 0 mm 3 mps 716 mmHg 56%
    18:00 +27°C° 0.3 mm 2 mps 716 mmHg 65%
    19:00 +25°C° 0.3 mm 2 mps 717 mmHg 74%
    20:00 +23°C° 0.3 mm 1 mps 717 mmHg 84%
    21:00 +23°C° 2.8 mm 1 mps 717 mmHg 88%
    22:00 +22°C° 2.8 mm 1 mps 717 mmHg 93%
    23:00 +22°C° 2.8 mm 1 mps 717 mmHg 97%

    26 April, Friday

    Time Temperature Precipitation Wind Pressure Humidity
    00:00 +21°C° 1.9 mm 1 mps 717 mmHg 97%
    01:00 +21°C° 1.9 mm 1 mps 717 mmHg 97%
    02:00 +21°C° 1.9 mm 1 mps 716 mmHg 97%
    03:00 +21°C° 0.7 mm 1 mps 717 mmHg 97%
    04:00 +21°C° 0.7 mm 1 mps 717 mmHg 97%
    05:00 +21°C° 0.7 mm 1 mps 717 mmHg 97%
    06:00 +21°C° 0.1 mm 1 mps 717 mmHg 96%
    07:00 +21°C° 0.1 mm 1 mps 717 mmHg 94%
    08:00 +22°C° 0.1 mm 1 mps 718 mmHg 93%
    09:00 +23°C° 0 mm 1 mps 718 mmHg 84%
    10:00 +25°C° 0 mm 2 mps 718 mmHg 76%
    11:00 +26°C° 0 mm 2 mps 718 mmHg 67%
    12:00 +27°C° 0 mm 2 mps 718 mmHg 62%
    13:00 +28°C° 0 mm 2 mps 717 mmHg 57%
    14:00 +29°C° 0 mm 3 mps 717 mmHg 51%
    15:00 +28°C° 0 mm 3 mps 717 mmHg 57%
    16:00 +26°C° 0 mm 3 mps 717 mmHg 62%
    17:00 +25°C° 0 mm 3 mps 717 mmHg 68%
    18:00 +24°C° 0 mm 2 mps 717 mmHg 75%
    19:00 +21°C° 0 mm 2 mps 718 mmHg 83%
    20:00 +21°C° 0 mm 1 mps 719 mmHg 90%
    21:00 +20°C° 0 mm 1 mps 719 mmHg 92%
    22:00 +20°C° 0 mm 1 mps 719 mmHg 94%
    23:00 +20°C° 0 mm 1 mps 719 mmHg 96%

    27 April, Saturday

    Time Temperature Precipitation Wind Pressure Humidity
    00:00 +19°C° 0 mm 1 mps 719 mmHg 96%
    01:00 +19°C° 0 mm 1 mps 719 mmHg 97%
    02:00 +19°C° 0 mm 1 mps 718 mmHg 97%
    03:00 +19°C° 0 mm 1 mps 718 mmHg 97%
    04:00 +18°C° 0 mm 1 mps 719 mmHg 97%
    05:00 +18°C° 0 mm 1 mps 719 mmHg 97%
    06:00 +19°C° 0 mm 1 mps 719 mmHg 92%
    07:00 +21°C° 0 mm 1 mps 720 mmHg 87%
    08:00 +20°C° 0 mm 0 mps 720 mmHg 82%
    09:00 +24°C° 0 mm 1 mps 721 mmHg 71%
    10:00 +26°C° 0 mm 1 mps 721 mmHg 60%
    11:00 +29°C° 0 mm 1 mps 721 mmHg 50%
    12:00 +29°C° 0 mm 1 mps 720 mmHg 48%
    13:00 +29°C° 0 mm 1 mps 720 mmHg 47%
    14:00 +30°C° 0 mm 1 mps 719 mmHg 46%
    15:00 +28°C° 0 mm 1 mps 719 mmHg 50%
    16:00 +27°C° 0 mm 1 mps 719 mmHg 54%
    17:00 +26°C° 0 mm 1 mps 719 mmHg 58%
    18:00 +24°C° 0 mm 1 mps 720 mmHg 67%
    19:00 +23°C° 0 mm 1 mps 720 mmHg 76%
    20:00 +21°C° 0 mm 1 mps 720 mmHg 86%
    21:00 +21°C° 0 mm 1 mps 720 mmHg 88%
    22:00 +21°C° 0 mm 1 mps 721 mmHg 91%
    23:00 +18°C° 0 mm 0 mps 721 mmHg 93%
    Show more